Location: Home
(42.5358°N, 72.7383°W)
Time: 18:27:26
(UTC-05:00)

Explorer 7 - Visible Passes

Search period start: 29 November 2021 00:00
Search period end: 09 December 2021 00:00
Orbit: 483 x 675 km, 50.3° (Epoch: 29 November)

Date Brightness Start Highest point End Pass type
(mag) Time Alt. Az. Time Alt. Az. Time Alt. Az.
29 Nov 8.9 06:22:13 10° SSW 06:26:01 32° SE 06:29:37 10° ENE visible
30 Nov 7.9 06:25:49 10° SW 06:29:57 50° SE 06:33:52 10° ENE visible
01 Dec 9.8 04:51:35 10° SSE 04:53:57 14° SE 04:56:14 10° E visible
02 Dec 9.2 04:54:19 10° S 04:57:48 23° SE 05:01:06 10° E visible
03 Dec 8.3 04:58:38 16° SSW 05:01:41 36° SE 05:05:30 10° ENE visible
04 Dec 7.4 05:03:43 30° SSW 05:05:38 56° SE 05:09:43 10° ENE visible
05 Dec 10.2 03:32:08 11° E 03:32:08 11° E 03:32:19 10° E visible
05 Dec 6.8 05:08:27 48° SW 05:09:37 85° SE 05:13:47 10° ENE visible
06 Dec 10.1 03:36:39 12° E 03:36:39 12° E 03:37:00 10° E visible
06 Dec 6.8 05:12:56 55° W 05:13:40 68° NNW 05:17:48 10° NE visible
07 Dec 10.0 03:40:57 12° ENE 03:40:57 12° ENE 03:41:19 10° ENE visible
07 Dec 7.1 05:17:14 47° NW 05:17:45 50° NNW 05:21:48 10° NE visible
08 Dec 10.0 03:45:08 12° ENE 03:45:08 12° ENE 03:45:28 10° ENE visible
08 Dec 7.5 05:21:25 37° NW 05:21:53 39° NNW 05:25:48 10° NE visible
